Location: Big Sandy Campground
(37.4666°N, 119.5821°W)
Time: 13:24:51
(UTC+00:00)

Cosmos 1417 Rocket - Pass Details

Date: 03 August 2024
Orbit: 952 x 997 km, 83.0° (Epoch: 15 September)

Event Time Altitude Azimuth Distance (km) Brightness Sun altitude
Rises 12:09:49 0° 187° (S) 3,618 7.1 -10.5°
Reaches altitude 10° 12:12:18 10° 187° (S) 2,673 6.4 -10.1°
Maximum altitude 12:18:25 84° 275° (W) 962 4.5 -9.1°
Drops below altitude 10° 12:24:34 10° 5° (N) 2,687 7.3 -8.0°
Sets 12:27:05 0° 6° (N) 3,639 8.0 -7.6°
